EW9060 Weather Reports


time (UTC)temp
C
wind
direction
speed
KPH
gust
KPH
rain 1hr
cm
rain 24hr
cm
rain mn
cm
humidity
%
barometer
mb
20260831021531 29 184 4.8 11.3 0.00 0.00 0.00 30 1009.9
20260831020029 30 162 3.2 9.7 0.00 0.00 0.00 27 1009.8
20260831014530 31 169 0.0 11.3 0.00 0.00 0.00 29 1009.8
20260831013028 32 179 0.0 11.3 0.00 0.00 0.00 30 1009.8
20260831011537 33 186 3.2 12.9 0.00 0.00 0.00 29 1009.9
20260831010025 33 248 0.0 8.0 0.00 0.00 0.00 27 1010.0
20260831004523 33 139 0.0 12.9 0.00 0.00 0.00 27 1010.0
20260831003033 33 283 0.0 6.4 0.00 0.00 0.00 25 1010.1
20260831001521 33 212 3.2 12.9 0.00 0.00 0.00 25 1010.2
20260831000021 33 266 0.0 12.9 0.00 0.00 0.00 27 1010.3
20260830234527 33 248 1.6 8.0 0.00 0.00 0.00 28 1010.4
20260830233012 33 267 1.6 8.0 0.00 0.00 0.00 29 1010.6
20260830231508 33 194 3.2 8.0 0.00 0.00 0.00 30 1010.7
20260830230005 33 300 0.0 8.0 0.00 0.00 0.00 31 1010.9
20260830224600 33 176 0.0 4.8 0.00 0.00 0.00 30 1011.0
20260830223110 32 319 1.6 8.0 0.00 0.00 0.00 30 1011.2
20260830221554 32 274 0.0 8.0 0.00 0.00 0.00 31 1011.5
20260830220051 31 296 1.6 6.4 0.00 0.00 0.00 31 1011.8
20260830214555 31 165 1.6 6.4 0.00 0.00 0.00 32 1012.0
20260830213044 31 298 1.6 9.7 0.00 0.00 0.00 32 1012.2
20260830211541 31 98 0.0 4.8 0.00 0.00 0.00 35 1012.4
20260830210038 30 315 0.0 9.7 0.00 0.00 0.00 35 1012.5
20260830204536 30 263 1.6 8.0 0.00 0.00 0.00 37 1012.7
20260830203034 29 30 1.6 4.8 0.00 0.00 0.00 38 1012.9
20260830201532 29 254 0.0 4.8 0.00 0.00 0.00 39 1013.0
20260830200041 28 137 1.6 8.0 0.00 0.00 0.00 41 1013.2
20260830194524 27 148 0.0 8.0 0.00 0.00 0.00 43 1013.3
20260830193022 27 88 1.6 6.4 0.00 0.00 0.00 43 1013.5
20260830191519 26 303 0.0 6.4 0.00 0.00 0.00 46 1013.6
20260830190039 26 110 1.6 6.4 0.00 0.00 0.00 45 1013.8
20260830184514 25 239 0.0 6.4 0.00 0.00 0.00 47 1013.9
20260830183011 24 121 0.0 9.7 0.00 0.00 0.00 50 1013.9
20260830181508 24 252 1.6 3.2 0.00 0.00 0.00 51 1014.1
20260830180004 23 237 1.6 8.0 0.00 0.00 0.00 53 1014.2
20260830174609 22 178 0.0 4.8 0.00 0.00 0.00 56 1014.4
20260830173056 21 109 0.0 6.4 0.00 0.00 0.00 58 1014.4
20260830171553 21 170 0.0 6.4 0.00 0.00 0.00 60 1014.4
20260830170049 20 76 0.0 6.4 0.00 0.00 0.00 61 1014.4
20260830164545 20 101 0.0 4.8 0.00 0.00 0.00 63 1014.4
20260830163042 19 86 0.0 4.8 0.00 0.00 0.00 65 1014.4
20260830161546 18 48 1.6 6.4 0.00 0.00 0.00 67 1014.4
20260830160041 18 55 0.0 6.4 0.00 0.00 0.00 69 1014.3
20260830154536 17 139 0.0 4.8 0.00 0.00 0.00 70 1014.3
20260830153034 17 138 0.0 0.0 0.00 0.00 0.00 72 1014.3
20260830151533 16 15 1.6 4.8 0.00 0.00 0.00 74 1014.2
20260830150031 16 11 0.0 4.8 0.00 0.00 0.00 75 1014.2
20260830144532 15 13 0.0 4.8 0.00 0.00 0.00 77 1014.1
20260830143026 15 13 0.0 4.8 0.00 0.00 0.00 78 1014.0
20260830141524 15 17 0.0 3.2 0.00 0.00 0.00 79 1013.7
20260830140024 14 151 0.0 3.2 0.00 0.00 0.00 79 1013.6
20260830134527 14 123 1.6 6.4 0.00 0.00 0.00 79 1013.4
20260830133019 15 145 0.0 8.0 0.00 0.00 0.00 79 1013.3
20260830131515 15 107 0.0 0.0 0.00 0.00 0.00 78 1013.2
20260830130015 15 158 0.0 6.4 0.00 0.00 0.00 77 1013.0
20260830124517 15 178 0.0 8.0 0.00 0.00 0.00 77 1012.8
20260830123010 15 124 0.0 8.0 0.00 0.00 0.00 76 1012.8
20260830121510 15 192 0.0 8.0 0.00 0.00 0.00 76 1012.8
20260830120007 15 151 0.0 4.8 0.00 0.00 0.00 75 1012.8
20260830114505 15 167 0.0 6.4 0.00 0.00 0.00 74 1012.8
20260830113004 16 150 0.0 8.0 0.00 0.00 0.00 73 1012.9
20260830111503 16 159 0.0 12.9 0.00 0.00 0.00 73 1012.8
20260830110100 16 189 0.0 8.0 0.00 0.00 0.00 72 1012.8
20260830104607 16 174 1.6 12.9 0.00 0.00 0.00 71 1012.7
20260830103058 16 155 3.2 12.9 0.00 0.00 0.00 70 1012.6
20260830101555 16 142 0.0 11.3 0.00 0.00 0.00 69 1012.5
20260830100054 16 134 3.2 12.9 0.00 0.00 0.00 68 1012.5
20260830094551 17 161 3.2 16.1 0.00 0.00 0.00 68 1012.5
20260830093049 17 157 1.6 12.9 0.00 0.00 0.00 67 1012.5
20260830091548 17 157 1.6 14.5 0.00 0.00 0.00 66 1012.7
20260830090046 17 149 3.2 14.5 0.00 0.00 0.00 65 1012.7
20260830084547 17 132 1.6 17.7 0.00 0.00 0.00 65 1012.5
20260830083057 17 130 1.6 11.3 0.00 0.00 0.00 65 1012.7
20260830081540 17 118 4.8 12.9 0.00 0.00 0.00 65 1012.7
20260830080040 18 148 4.8 16.1 0.00 0.00 0.00 64 1012.6
20260830074537 18 124 1.6 14.5 0.00 0.00 0.00 64 1012.5
20260830073038 18 204 4.8 16.1 0.00 0.00 0.00 64 1012.5
20260830071533 18 144 1.6 11.3 0.00 0.00 0.00 64 1012.4
20260830070031 18 142 1.6 12.9 0.00 0.00 0.00 64 1012.3
20260830064529 18 132 4.8 17.7 0.00 0.00 0.00 63 1012.4
20260830063029 19 147 6.4 17.7 0.00 0.00 0.00 63 1012.4
20260830061532 19 178 4.8 12.9 0.00 0.00 0.00 62 1012.4
20260830060028 19 130 3.2 11.3 0.00 0.00 0.00 61 1012.5
20260830054534 20 190 4.8 12.9 0.00 0.00 0.00 61 1012.5
20260830053028 20 142 1.6 12.9 0.00 0.00 0.00 60 1012.4
20260830051526 20 11 3.2 9.7 0.00 0.00 0.00 58 1012.4
20260830050026 20 11 1.6 17.7 0.00 0.00 0.00 57 1012.5
20260830044525 21 11 4.8 14.5 0.00 0.00 0.00 56 1012.1
20260830043024 21 12 3.2 16.1 0.00 0.00 0.00 55 1012.1
20260830041524 21 13 1.6 14.5 0.00 0.00 0.00 54 1012.1
20260830040023 22 12 6.4 20.9 0.00 0.00 0.00 52 1011.7
20260830034523 22 11 3.2 12.9 0.00 0.00 0.00 50 1011.5
20260830033022 23 11 3.2 9.7 0.00 0.00 0.00 48 1011.3
20260830031522 23 11 6.4 17.7 0.00 0.00 0.00 45 1011.2
20260830030021 24 12 1.6 24.1 0.00 0.00 0.00 42 1011.0
20260830024520 25 12 1.6 16.1 0.00 0.00 0.00 38 1011.0
20260830023020 25 16 6.4 20.9 0.00 0.00 0.00 38 1011.0